Погода в Усть-Теленгуе

Россия / Забайкальский край     51°32′46″N   115°57′50″E
темп.,
°C
ветер,
м/с
пор.,
м/с
влажн.,
%
обл.,
%
осадки,
мм/ч
давл.,
гПа
погр.,
м
8 марта, пн
пн800:00−13ююв129066 0.0 102221
03:00−15ююв129349 0.0 102120
06:00−15ю129682 0.0 101821
09:00−13ююз229491 0.0 101843
12:00−9ююз3594100 0.0 1016256
15:00−5ююз3590100 0.0 1014360
18:00−3зсз6167229 0.2 10141016
21:00−8сз7166822 0.3 1020439
9 марта, вт
вт900:00−12зсз48740 0.0 1025148
03:00−17сз11780 0.0 102821
06:00−20ююв11770 0.0 103020
09:00−18ююв12770 0.0 103221
12:00−13ю237319 0.0 1029195
15:00−9ю347549 0.0 1026348
18:00−10ююв23830 0.0 102356
21:00−13ююв227717 0.0 102422
10 марта, ср
ср1000:00−13ююв1180100 0.0 102121
03:00−12ююз1183100 0.0 102121
06:00−14ю129292 0.0 102221
09:00−13ююв119460 0.0 102421
12:00−7ююз22900 0.0 1023170
15:00−2сз36738 0.0 1023925
18:00−4з11770 0.0 102421
21:00−10ю11780 0.0 102721
11 марта, чт
чт1100:00−12ююв22780 0.0 102821
03:00−13юв22770 0.0 102821
06:00−13ююв228026 0.0 102821
09:00−12ююв228342 0.0 102825
12:00−7ю238216 0.0 1026207
15:00−5ю23879 0.0 1025320
18:00−6ююв229042 0.0 102530
21:00−10ююв229021 0.0 102721
12 марта, пт
пт1200:00−11ююв22910 0.0 102821
03:00−11ююв22920 0.0 102822
06:00−12ююв22920 0.0 102822
09:00−11ююв23860 0.0 102639
12:00−6ю36810 0.0 1024292
15:00−3ю48820 0.0 1020439
18:00−3ююв47850 0.0 1017201
21:00−8ююв23810 0.0 101825